www.pogodaiklimat.ru

Погода и климат >> Архив погоды >> Малайзия >> Kota Kinabalu


ПОГОДА в Kota Kinabalu

  • Прогноз погоды в Kota Kinabalu
  • Монитор погоды в Kota Kinabalu
  • Климат города

АРХИВ ПОГОДЫ в Kota Kinabalu

Время (UTC), дата Ветер
(напр.,м/с)
 
Видим.   Явления Облачность Т
(С)
Тd
(С)
f
(%)
Тe
(С)
Тes
(С)
Комфортность P
(гПа)
Po
(гПа)
Тmin
(С)
Tmax
(С)
R
(мм)
R24
(мм)
S
(см)
03 11.10 З 3 25 км 9/1 450 м
[Cu Sc Ac lent Ci fib]
+32.7 +27.0 72 +51 +59 опасность
перегрева
1010.2 1009.9
06 11.10 СЗ 2 15 км гроза без осадков {дождь} 9/5 420 м
[Cb cap Ac lent Cs]
+33.0 +25.9 66 +48 +54 опасность
перегрева
1007.9 1007.6 0.2
09 11.10 ЮВ 3 15 км слабый ливневой дождь, в посл. час гроза 9/5 420 м
[Cb cap Ac lent Cs]
+27.4 +25.6 90 +40 +41 очень
душно
1008.0 1007.7
12 11.10 В 2 18 км зарница {гроза, дождь} 9/4 420 м
[Cb cap Ac lent Cs]
+27.1 +25.6 92 +40 +40 очень
душно
1009.5 1009.2 +34.0 3
15 11.10 В 2 18 км 9/1 420 м
[Cu Sc Ac lent Cs]
+26.3 +24.3 89 +37 +37 очень
душно
1010.8 1010.5
18 11.10 В 2 18 км 9/3 420 м
[Cu Sc Ac lent Cs]
+25.3 +23.9 92 +35 +35 очень
душно
1009.8 1009.5
21 11.10 В 2 18 км 9/3 420 м
[Cu Sc Ac lent Cs]
+25.3 +23.4 89 +34 +34 очень
душно
1009.6 1009.3
00 12.10 В 2 24 км 9/1 420 м
[Cu Sc Ac lent Ci sp]
+29.6 +24.8 75 +42 +44 опасность
перегрева
1011.0 1010.7 +25.2 3
03 12.10 З 3 24 км 9/1 420 м
[Cu Sc Ac lent Ci sp]
+32.8 +26.7 70 +50 +58 опасность
перегрева
1011.2 1010.9
06 12.10 З 3 24 км 9/1 450 м
[Cu Sc Ac trans Ci sp]
+33.6 +27.0 68 +51 +58 опасность
перегрева
1009.2 1008.9
09 12.10 В 3 4000 м гроза, ливневой дождь 10/6 420 м
[Cb cap Ac lent Cs]
+28.4 +27.2 93 +45 +45 опасность
перегрева
1008.6 1008.3
12 12.10 штиль 0 18 км гроза без осадков {дождь} 9/4 420 м
[Cb cap Ac lent Cs]
+26.8 +25.5 93 +39 +39 очень
душно
1010.2 1009.9 +33.9 9
15 12.10 ЮВ 2 18 км зарница {гроза} 9/4 420 м
[Cb cap Ac lent Cs]
+26.3 +24.5 90 +37 +37 очень
душно
1011.3 1011.0
18 12.10 В 2 18 км зарница 9/3 420 м
[Cb cap Ac lent Cs]
+25.4 +24.0 92 +35 +35 очень
душно
1009.7 1009.4
21 12.10 В 2 18 км зарница 9/3 420 м
[Cb cap Ac lent Cs]
+25.2 +23.7 91 +34 +34 очень
душно
1009.2 1008.9
00 13.10 В 2 25 км 9/1 450 м
[Cu Sc Ac lent Cs]
+28.8 +24.5 78 +41 +43 опасность
перегрева
1011.4 1011.1 +25.0 9
03 13.10 З 3 24 км 9/3 420 м
[Cu Sc Ac lent Ci sp]
+32.4 +26.9 73 +50 +57 опасность
перегрева
1011.9 1011.6
06 13.10 СЗ 4 4000 м гроза, ливневой дождь 9/5 420 м
[Cb cap Ac lent Cs]
+29.2 +27.0 88 +46 +50 опасность
перегрева
1008.9 1008.6 3
09 13.10 В 2 25 км в посл. час дождь {гроза} 9/5 420 м
[Cu Sc Ac lent Cs]
+28.0 +25.6 87 +41 +42 опасность
перегрева
1008.8 1008.5
12 13.10 штиль 0 18 км зарница {дождь} 9/4 420 м
[Cb cap Ac lent Cs]
+26.8 +24.6 88 +38 +38 очень
душно
1010.2 1009.9 +33.0 6
15 13.10 ЮВ 2 18 км зарница 9/5 420 м
[Cb cap Ac lent Cs]
+26.2 +24.4 90 +37 +37 очень
душно
1012.0 1011.7
18 13.10 ЮВ 2 18 км зарница 9/4 420 м
[Cb cap Ac lent Cs]
+25.9 +24.1 90 +36 +36 очень
душно
1010.6 1010.3
21 13.10 ЮВ 1 18 км зарница 9/4 420 м
[Cb cap Ac lent Cs]
+25.3 +24.0 93 +35 +35 очень
душно
1010.1 1009.8
00 14.10 Ю 5 25 км 9/4 420 м
[Cb cap Ac lent Cs]
+27.6 +24.9 85 +39 +40 очень
душно
1012.8 1012.5 +25.0 10
03 14.10 З 4 16 км слабый дождь 9/5 420 м
[Cb cap Ac lent Cs]
+29.7 +25.4 78 +44 +47 опасность
перегрева
1013.2 1012.9
06 14.10 Ю 6 10 км слабый дождь 9/4 400 м
[Cb cap Ac lent Cs]
+25.6 +24.6 94 +36 +38 очень
душно
1011.0 1010.7 0.6
09 14.10 Ю 3 8000 м гроза, ливневой дождь 9/6 240 м
[Cb cap Ac lent Cs]
+25.4 +24.1 93 +35 +36 очень
душно
1011.8 1011.5
12 14.10 З 7 5000 м гроза, ливневой дождь 10/5 400 м
[Cb cap Ac lent Cs]
+25.6 +25.0 96 +36 +36 очень
душно
1013.6 1013.3 +31.0 18
15 14.10 ЮЗ 7 8000 м слабый дождь {гроза} 9/5 420 м
[Cb cap Ac lent Cs]
+25.3 +24.1 93 +35 +35 очень
душно
1014.3 1014.0
18 14.10 Ю 3 9000 м слабый дождь {гроза} 9/6 420 м
[Cb cap Ac lent Cs]
+23.7 +22.5 93 +31 +31 очень
душно
1013.1 1012.8 11
21 14.10 ЮВ 2 18 км {дождь} 9/5 420 м
[Cu Sc Ac lent Cs]
+23.8 +23.0 95 +32 +32 очень
душно
1013.1 1012.8
00 15.10 Ю 3 25 км в посл. час дождь 9/3 420 м
[Cu Sc Ac lent Cs]
+26.9 +23.5 82 +37 +38 очень
душно
1014.2 1013.9 +23.4 30
03 15.10 З 3 28 км 9/1 420 м
[Cu Sc Ac lent Ci sp]
+29.7 +24.4 73 +42 +50 опасность
перегрева
1014.1 1013.8
06 15.10 З 3 26 км 10/5 420 м
[Cu Sc Ac lent Cs]
+29.8 +24.5 73 +42 +45 опасность
перегрева
1011.6 1011.3
09 15.10 ЮЗ 2 26 км 9/4 420 м
[Cu Sc Ac lent Cs]
+28.7 +23.8 75 +40 +40 очень
душно
1011.2 1010.9
12 15.10 В 2 18 км 9/3 420 м
[Cu Sc Ac lent Cs]
+27.0 +24.3 85 +38 +38 очень
душно
1013.1 1012.8 +31.7
15 15.10 В 3 18 км 9/3 420 м
[Cu Sc Ac lent Cs]
+26.0 +23.1 84 +35 +35 очень
душно
1013.8 1013.5
18 15.10 В 3 18 км 9/1 420 м
[Cu Sc Ac lent Cs]
+25.1 +22.4 85 +33 +33 очень
душно
1012.2 1011.9
21 15.10 В 3 18 км 9/3 420 м
[Cu Sc Ac lent Cs]
+24.8 +22.6 88 +33 +33 очень
душно
1012.4 1012.1
00 16.10 В 3 20 км в посл. час дождь 9/4 400 м
[Cu Sc Ac lent Cs]
+26.5 +23.3 83 +36 +37 очень
душно
1013.5 1013.2 +24.0 0.0
03 16.10 З 2 28 км 9/3 420 м
[Cu Sc Ac lent Cs]
+31.1 +23.6 64 +42 +49 опасность
перегрева
1012.1 1011.8
06 16.10 СЗ 3 26 км 9/3 420 м
[Cu Sc Ac lent Cs]
+29.8 +23.2 68 +40 +46 очень
душно
1010.4 1010.1
09 16.10 СВ 2 26 км 9/4 420 м
[Cb cap Ac lent Cs]
+28.3 +24.1 78 +39 +40 очень
душно
1010.3 1010.0
12 16.10 В 2 18 км 9/3 450 м
[Cu Sc Ac lent Cs]
+26.4 +24.4 89 +37 +37 очень
душно
1011.8 1011.5 +31.5
15 16.10 В 3 18 км 9/3 420 м
[Cu Sc Ac lent Cs]
+25.2 +22.1 83 +33 +33 очень
душно
1012.8 1012.5
18 16.10 В 3 18 км 9/3 420 м
[Cu Sc Ac lent Cs]
+23.8 +21.3 86 +30 +30 очень
душно
1010.6 1010.3
21 16.10 В 4 18 км 9/1 420 м
[Cu Sc Ac lent Cs]
+23.5 +21.3 87 +30 +30 очень
душно
1010.1 1009.8
00 17.10 ЮВ 2 28 км 8/1 450 м
[Cu Sc Ac trans Ci sp]
+27.5 +22.4 74 +36 +38 очень
душно
1011.8 1011.5 +23.3
03 17.10 З 2 28 км 8/1 450 м
[Cu Sc Ac trans Ci sp]
+31.7 +24.6 66 +44 +54 опасность
перегрева
1011.9 1011.6
06 17.10 З 4 28 км 9/3 450 м
[Cb cap Ac trans Ci sp]
+31.9 +26.0 71 +47 +52 опасность
перегрева
1009.4 1009.1
09 17.10 З 3 25 км 9/5 420 м
[Cb cap Ac lent Cs]
+30.1 +25.4 76 +44 +45 опасность
перегрева
1008.2 1007.9
12 17.10 ЮВ 2 18 км 9/1 420 м
[Cu Sc Ac lent Cs]
+27.2 +23.8 82 +37 +37 очень
душно
1010.1 1009.8 +32.4
15 17.10 В 2 18 км 9/3 420 м
[Cu Sc Ac lent Cs]
+26.4 +23.8 86 +36 +36 очень
душно
1010.8 1010.5
18 17.10 В 2 18 км в посл. час дождь 9/3 420 м
[Cu Sc Ac lent Cs]
+25.0 +23.8 93 +34 +34 очень
душно
1009.4 1009.1 3
21 17.10 Ю 2 18 км 9/3 420 м
[Cu Sc Ac lent Cs]
+25.1 +23.9 93 +34 +34 очень
душно
1009.1 1008.8
00 18.10 Ю 4 8000 м слабый дождь 10/5 300 м
[Cu Sc Ac lent Cs]
+25.4 +24.8 96 +36 +36 очень
душно
1011.3 1011.0 +24.4 5

 

Местоположение метеостанции Kota Kinabalu (Малайзия): широта 5.93 долгота 116.05 высота над уровнем моря 3 м.

В архиве по умолчанию представлена погода в Kota Kinabalu за последнюю неделю. Архивные данные за месяц целиком и за предыдущие месяцы, начиная с января 2011 года, Вы можете получить, выбрав интересующий диапазон дат из раскрывающегося списка и нажав кнопку "Ввод!".


*Определитесь, кто Вы:
робот инопланетянин человек

Внимание! Время в таблицах - всемирное. Для получения местного времени необходимо прибавить поправку, которая в Kota Kinabalu равна 8 ч.

Смотрите также архив погоды в соседних городах и на ближайших метеорологических станциях:

Погода в Labuan (Малайзия) (113 км)
Погода в Brunei Airport (Бруней) (167 км)
Погода в Sandakan (Малайзия) (222 км)
Погода в Longbawan (Индонезия) (248 км)
Погода в Tawau (Малайзия) (274 км)
Погода в Miri (Малайзия) (290 км)
Погода в Tarakan (Индонезия) (334 км)
Погода в Tanjung Selor (Индонезия) (371 км)
Погода в Tanjung Redep (Индонезия) (451 км)
Погода в Bintulu (Малайзия) (452 км)

Пояснения к столбцам:

Ветер - указаны скорость ветра в м/с - средняя за 10 мин, порывы в срок и между сроками (в фигурных скобках) и направление, откуда дует ветер: С - северный, СВ - северо-восточный, В - восточный, ЮВ - юго-восточный, Ю - южный, ЮЗ - юго-западный, З - западный, СЗ - северо-западный.
Видимость - горизонтальная дальность видимости в метрах или километрах. При видимости от 1 до 10 км при отсутствии осадков обычно наблюдается дымка, при ухудшении видимости до 1 км и менее - туман. В сухую погоду видимость может ухудшаться дымом, пылью или мглою.
Явления - указаны атмосферные явления, наблюдавшиеся в срок или в последний час перед сроком; фигурными скобками обозначены явления, наблюдавшиеся между сроками (за 1-3 часа до срока); квадратными скобками обозначены град или гололедные отложения с указанием их диаметра в мм.
Облачность - указаны через наклонную черту общая и нижняя облачность в баллах и высота нижней границы облаков в метрах; квадратными скобками обозначены формы облаков: Ci - перистые, Cs - перисто-слоистые, Cc - перисто-кучевые, Ac - высококучевые, As - высокослоистые, Sc - слоисто-кучевые, Ns - слоисто-дождевые, Cu - кучевые, Cb - кучево-дождевые. Подробнее классификацию облаков см. в Атласе облаков (PDF).
T - Температура воздуха - температура, измеренная на высоте 2 м над землей.
Td - Температура точки росы - температура, при понижении до которой содержащийся в воздухе водяной пар достигнет насыщения.
f - Относительная влажность воздуха - влажноcть воздуха, измеренная на высоте 2 м над землей.
Te - Эффективная температура - температура, которую ощущает одетый по сезону человек в тени. Характеристика душности погоды. При расчете учитывается влияние влажности воздуха и скорости ветра на теплоощущения человека.
Tes - Эффективная температура на солнце - температура, которую ощущает человек, с поправкой на солнечный нагрев. Характеристика знойности погоды. Зависит от высоты солнца над горизонтом, облачности и скорости ветра. Ночью, в пасмурную погоду, а также при ветре 12 м/с и более поправка равна нулю.
P - Атмосферное давление - приведенное к уровню моря атмосферное давление.
Po - Атмосферное давление - измеренное на уровне метеостанции атмосферное давление.
Tmin - Минимальная температура - минимум температуры воздуха на высоте 2 м над землей.
Tmax - Максимальная температура - максимум температуры воздуха на высоте 2 м над землей.
R - Количество осадков - Количество выпавших осадков за период времени, мм. При наведении курсора мыши на число - период времени, за который выпало указанное количество осадков.
R24 - Количество осадков - Количество выпавших осадков за 24 часа, мм.
S - Снежный покров - Высота снежного покрова, см. При наведении курсора мыши на число - состояние снежного покрова и степень покрытия местности в баллах.